Date,TemperatureHighF,TemperatureAvgF,TemperatureLowF,DewpointHighF,DewpointAvgF,DewpointLowF,HumidityHigh,HumidityAvg,HumidityLow,PressureMaxIn,PressureMinIn,WindSpeedMaxMPH,WindSpeedAvgMPH,GustSpeedMaxMPH,PrecipitationSumIn
2013-10-1,86,69,58,69,62,55,97,80,51,29.81,29.69,6,1,0,0.00
2013-10-2,87,71,59,72,66,58,99,85,56,29.84,29.70,6,1,0,0.00
2013-10-3,85,74,64,73,68,61,94,83,63,29.74,29.56,12,2,0,0.02
2013-10-4,91,76,61,73,68,54,94,77,45,29.76,29.53,15,3,0,0.50
2013-10-5,62,53,46,53,39,35,74,59,41,29.89,29.76,11,2,0,0.00
2013-10-6,61,51,43,46,41,35,94,69,53,29.89,29.73,12,3,0,0.00
2013-10-7,77,57,40,50,43,36,95,64,32,30.03,29.89,5,1,0,0.00
2013-10-8,77,62,50,51,47,44,84,62,35,29.96,29.85,13,2,0,0.00
2013-10-9,80,63,52,56,50,47,85,65,38,29.94,29.84,7,1,0,0.00
2013-10-10,82,65,52,60,54,47,88,69,42,29.91,29.69,11,1,0,0.00
2013-10-11,78,67,58,66,60,53,93,79,65,29.71,29.59,10,2,0,0.00
2013-10-12,72,58,44,52,43,39,86,62,30,30.12,29.71,10,1,0,0.00
2013-10-13,73,56,39,45,39,36,89,57,29,30.27,30.12,3,0,0,0.00
2013-10-14,70,59,50,61,49,37,96,72,52,30.14,29.69,13,2,0,0.32
2013-10-15,62,54,46,61,45,38,97,74,50,29.96,29.72,11,2,0,0.11
2013-10-16,60,50,42,43,40,37,87,69,47,30.00,29.86,8,1,0,0.00
2013-10-17,68,53,41,47,41,34,90,67,30,29.90,29.77,8,2,0,0.00
2013-10-18,47,39,34,40,36,33,96,90,76,30.03,29.90,7,1,0,0.22
2013-10-19,65,46,32,44,37,32,97,75,36,30.00,29.77,8,1,0,0.00
2013-10-20,50,47,45,43,42,40,85,81,75,29.76,29.70,4,1,0,0.00
2013-10-21,60,48,36,39,35,31,91,61,38,30.00,29.88,6,1,0,0.00
2013-10-22,62,51,37,46,40,33,86,68,45,30.00,29.81,14,3,0,0.00
2013-10-23,55,42,31,39,35,30,95,77,50,30.06,29.92,4,0,0,0.00
2013-10-24,51,41,28,37,31,25,89,69,39,30.33,30.06,8,1,0,0.00
2013-10-25,59,37,24,33,27,23,96,73,31,30.36,30.17,11,2,0,0.00
2013-10-29,65,64,64,64,64,64,98,98,98,29.82,29.81,3,1,0,0.00
2013-10-30,70,65,55,67,63,54,99,95,89,29.81,29.55,14,2,0,0.49
2013-10-31,59,51,45,54,47,42,98,88,66,29.58,29.41,7,1,0,0.62